星链-33805 (STARLINK-33805)

导读

STARLINK-33805是美国太空探索技术公司(SpaceX)于2025年4月14日发射的星链(Starlink)低轨宽带卫星,属于SpaceX打造的全球卫星互联网星座组网卫星。星链星座通过在近地轨道部署数千颗小型卫星,可为全球偏远地区、海上等传统通信覆盖不足区域提供高速低延迟宽带互联网接入服务,该卫星的发射进一步扩充了星链星座的网络覆盖与服务能力。

Basic Information
目录编号:
63590
目录名称:
STARLINK-33805
国际标识:
2025-076X
轨道中心:
EARTH
卫星名称:
星链-33805
卫星全名:
星链-33805 (STARLINK-33805)
卫星状态:
在轨 (已飞行508 天)
发射日期:
2025-04-14 UTC
国别 :
美国 (US)
星等 :
--
Orbit Information
数据来源 国际轨道数据 AOE轨道数据
星历时间 2026-09-04T02:51:58+0800
17小时前
查看轨道信息
2026-08-30T03:00:00+0800
5天前
查看轨道信息
半长轴 6861.165km 6861.199km
偏心率 0.0001269 0.0002749
轨道倾角 43.002° 43.000°
近地点辐角 273.905° 260.811°
升交点赤经 36.257° 64.469°
平近点角 86.166° 321.344°
近地点 482.157km 481.175km
远地点 483.899km 484.949km
周期 94.266分钟 94.267分钟
每日圈数 15.275871 15.275758
Detailed Information
固有亮度:
5
最大亮度:
2.5
卫星平台:
Starlink V1.0
覆盖范围:
全球
运营商:
太空探索技术公司
运营商所在国:
美国
制造商(研发单位):
太空探索技术公司
制造商所在国:
美国
使用方式:
暂无
Satellite Introduction
Starlink 计划是 SpaceX 推出的全球卫星互联网项目,通过发射低轨道卫星,为全球尤其是偏远地区提供高速、低延迟的互联网服务。自 2019 年起,Starlink 已部署数千颗卫星,旨在缩小全球数字鸿沟,推动互联网普及。该项目还为军事、航空等行业提供通信支持,带来广泛经济效益。
2D Orbit Map
3D Orbit Map
Orbit Altitude Analysis Chart
Orbit Inclination Analysis Chart
Orbit Comprehensive Analysis Chart
View Comprehensive Chart
Conjunction Data List
Event ID Objects TCA Miss Dist (km) Collision Risk Probability Collision Risk Index (CRI) Action
CDM_260827-211005-709106-359022
2026-08-27T
21:10:23+0000
0.906 km
远距离
2.797283E-5 中风险 0.64
CDM_260906-192005-713706-359021
2026-09-06T
19:20:42+0000
1.209 km
极远距离
6.70724E-6 低风险 0.52
CDM_260827-224405-709106-359022
2026-08-27T
22:44:33+0000
1.577 km
极远距离
4.260358E-6 低风险 0.48
CDM_260906-174605-713706-359021
2026-09-06T
17:46:32+0000
2.043 km
极远距离
1.415436E-6 低风险 0.38
CDM_260827-193605-709106-359021
2026-08-27T
19:36:14+0000
2.722 km
极远距离
1.186353E-6 低风险 0.36